Regional Weather Roundup
Issued by NWS

Home | Current Version | Previous Version | Graphics & Text | Print | Product List | Glossary On
Versions: 1 2 3 4 5 6 7 8 9 10 11 12 13 14 15 16 17 18 19 20 21 22 23 24 25 26 27 28 29 30 31 32 33 34 35 36 37 38 39 40 41 42 43 44 45 46 47 48 49 50
000
ASUS45 KTFX 240104
RWRMT
MONTANA HOURLY WEATHER ROUNDUP
NATIONAL WEATHER SERVICE GREAT FALLS MT
704 PM MDT WED APR 23 2014

NOTE: "FAIR" INDICATES FEW OR NO CLOUDS BELOW 12000 FEET WITH NO
SIGNIFICANT WEATHER AND/OR OBSTRUCTIONS TO VISIBILITY.

* THESE STATIONS ARE NOT UNDER NWS QUALITY CONTROL. THEY DO NOT
   REPORT WEATHER SUCH AS PRECIPITATION OR FOG.

MTZ001>007-043-240200-
WEST OF THE DIVIDE
CITY           SKY/WX    TMP DP  RH WIND       PRES   REMARKS
KALISPELL      PTCLDY    46  25  44 W21G28    29.76R
MISSOULA       CLOUDY    45  30  56 NW5       29.86R
BUTTE          CLOUDY    37  23  57 SW9       29.84R WCI  30
MULLAN PASS    LGT SNOW  28  27  96 VRB5G20   29.78F WCI  22
* ESSEX        N/A       40  23  51 S8G13      N/A   WCI  35
* LINCOLN      N/A       39  28  65 S6G16      N/A   WCI  35
* LOOKOUT PASS N/A       34  30  85 VRB5       N/A   WCI  29
* POLSON       N/A       41  30  65 W3G8       N/A
* SEELEY LAKE  N/A       39  29  67 SW8G15     N/A   WCI  33
* THOMP F APT  MOCLDY    42  21  43 W7G21      N/A
* YAAK HILL    N/A       49  25  39 S3G9       N/A
$$

MTZ008-052>055-240200-
SOUTHWEST MONTANA
CITY           SKY/WX    TMP DP  RH WIND       PRES   REMARKS
BOZEMAN        PTCLDY    45  25  45 SW15G24   29.83R
DILLON         MOCLDY    43  25  49 W20       29.85R
W YELLOWSTONE  N/A       34  26  73 SW2G14     N/A
* BOULDER HILL N/A       38  16  41 S9G15      N/A   WCI  32
* MONIDA PASS  N/A       36  17  46 SW6G11     N/A   WCI  31
* RAYNOLDS PAS N/A       37  17  44 S1G9       N/A
* WHITEHALL    N/A       49  24  38 W10G22     N/A
* WISE RIVER   N/A       34  23  64 SW15G24    N/A   WCI  24
$$

MTZ009>010-012-014-046-048-049-054-240200-
EAST SLOPES AND CENTRAL MONTANA
CITY           SKY/WX    TMP DP  RH WIND       PRES   REMARKS
CUT BANK       PTCLDY    45  21  38 W26G38    29.65R
GREAT FALLS    PTCLDY    43  25  49 SW24G36   29.72R
HELENA         MOCLDY    45  25  45 SW17G30   29.79R
MALMSTROM AFB  MOCLDY    48  23  37 SW25G38   29.69R
* DEARBORN     N/A       45  27  49 S8G19      N/A
* EAST GLACIER N/A       36  22  57 W21G34     N/A   WCI  25
* MONARCH      N/A       39  11  31 W18G30     N/A   WCI  30
* PENDROY      N/A       44  17  34 W20G30     N/A
* ROGERS PASS  N/A       34  25  70 SE6G13     N/A   WCI  29
* SAINT MARY   N/A       38  21  50 SW8G23     N/A   WCI  32
* SWEET GRASS  N/A       48  18  30 S28G40     N/A
$$

MTZ011-013-016-021-035-040-045-047-050-051-240200-
NORTH CENTRAL MONTANA
CITY           SKY/WX    TMP DP  RH WIND       PRES   REMARKS
HAVRE          MOCLDY    54  23  30 W26G35    29.61R
LEWISTOWN      CLOUDY    46  19  34 W25G32    29.72R
* DENTON       N/A       50  15  25 W26G37     N/A
* GEYSER       N/A       45  16  31 W17G24     N/A
* JUDITH GAP   N/A       38  19  46 NW30G40    N/A   WCI  26
* LOMA         N/A       51  25  36 S23G34     N/A
$$

MTZ017>020-022>027-061-062-240200-
NORTHEAST MONTANA
CITY           SKY/WX    TMP DP  RH WIND       PRES   REMARKS
GLASGOW        MOCLDY    57  19  23 W21G37    29.56R
GLENDIVE       PTCLDY    55  21  27 W13G18    29.65S
JORDAN         N/A       55  18  23 W15       29.64R
SIDNEY         PTCLDY    57  25  29 W14G23    29.62R
WOLF POINT     PTCLDY    61  18  19 W24G29    29.58R
* BEAVER HILL  N/A       56  20  24 W20G27     N/A
* LINDSAY DVD  N/A       54  20  26 W20G27     N/A
* NAVAJO       N/A       53  29  40 W17G26     N/A
* SACO         N/A       59  20  22 SW22G34    N/A
$$

MTZ028>042-056>058-240200-
SOUTHCENTRAL AND SOUTHEAST MONTANA
CITY           SKY/WX    TMP DP  RH WIND       PRES   REMARKS
BAKER          PTCLDY    54  30  40 W18       29.68S
BILLINGS       PTCLDY    52  16  24 W26G33    29.76R
LIVINGSTON     MOCLDY    46  19  34 W29G35    29.78S
MILES CITY     CLOUDY    55  19  24 W14       29.68R
* HYSHAM       N/A       53  11  18 W12G20     N/A
* LAME DEER    N/A       50  14  24 W20G30     N/A
* REED POINT   N/A       51  21  31 W21G32     N/A
* ROSCOE HILL  N/A       46  11  24 SW8G19     N/A
$$

REGIONAL REPORTS...DAKOTAS
CITY           SKY/WX    TMP DP  RH WIND       PRES   REMARKS
WILLISTON      CLOUDY    55  39  55 CALM      29.58R
DICKINSON      MOCLDY    55  27  34 W20       29.62R
CROSBY         CLOUDY    45  45 100 W8        29.57R
TIOGA          CLOUDY    46  46 100 W6        29.62R
WATFORD CITY   CLEAR     52  36  55 NW3       29.58S
BISMARCK       CLOUDY    52  39  61 NW12      29.66R
GRAND FORKS    RAIN      41  37  86 SE24G29   29.83F VSB 3
FARGO          LGT RAIN  41  37  86 SE22      29.79F
BUFFALO SD     PTCLDY    52  28  40 W26       29.64S
RAPID CITY     MOCLDY    54  34  47 N24G31    29.69R
$$

REGIONAL REPORTS...WYOMING/IDAHO/WASHINGTON
CITY           SKY/WX    TMP DP  RH WIND       PRES   REMARKS
GILLETTE       CLOUDY    48  21  34 NW10      29.77R
SHERIDAN       PTCLDY    52  19  27 NW12      29.76S
CODY           PTCLDY    45  18  34 W15G28    29.84R
YELLOWSTONE LA MOCLDY    27  23  85 VRB6      29.93R WCI  20
SALMON         PTCLDY    48  19  32 W7        29.86S
MULLAN PASS    LGT SNOW  28  27  96 VRB5G20   29.78S WCI  22
SPOKANE        CLOUDY    50  28  43 SW24G31   29.82R
$$

REGIONAL REPORTS...SASKATCHEWAN
CITY           SKY/WX    TMP DP  RH WIND       PRES   REMARKS
SWIFT CURRENT  LGT RAIN  45  41  86 W21G28    29.50R

$$




USA.gov is the U.S. government's official web portal to all federal, state and local government web resources and services.